EW2565 Weather Reports


time (UTC)temp
C
wind
direction
speed
KPH
gust
KPH
rain 1hr
cm
rain 24hr
cm
rain mn
cm
humidity
%
barometer
mb
20260505183049 7 134 1.6 8.0 0.00 1.24 1.24 78 1003.0
20260505181534 7 134 1.6 8.0 0.00 1.24 1.24 78 1003.1
20260505180038 7 134 1.6 8.0 0.00 1.24 1.24 80 1003.2
20260505174544 6 134 1.6 8.0 0.00 1.24 1.24 81 1003.2
20260505173035 6 134 1.6 8.0 0.00 1.24 1.24 85 1003.3
20260505171534 6 134 0.0 6.4 0.00 1.24 1.24 84 1003.3
20260505170033 6 134 1.6 12.9 0.00 1.24 1.24 86 1003.2
20260505164535 5 134 0.0 12.9 0.00 1.24 1.24 87 1003.0
20260505163033 5 134 0.0 4.8 0.00 1.24 1.24 86 1002.9
20260505161531 5 134 1.6 4.8 0.10 1.24 1.24 86 1002.7
20260505153028 3 134 1.6 9.7 0.46 1.24 1.24 89 1002.5
20260505151527 3 134 3.2 6.4 0.41 1.19 1.19 89 1002.5
20260505124507 6 134 0.0 3.2 0.08 0.33 0.33 85 1001.0
20260505123003 6 134 0.0 6.4 0.15 0.30 0.30 85 1000.7
20260505121503 6 134 1.6 4.8 0.18 0.30 0.30 86 1000.8
20260505120004 6 134 3.2 8.0 0.15 0.28 0.28 88 1000.7
20260505114602 6 134 4.8 8.0 0.15 0.28 0.28 87 1000.9
20260505113118 6 134 0.0 1.6 0.05 0.18 0.18 85 1001.1
20260505111557 7 134 0.0 1.6 0.00 0.13 0.13 85 1001.1
20260505101556 7 134 6.4 16.1 0.10 0.13 0.13 85 1000.9
20260505100053 7 134 11.3 16.1 0.13 0.13 0.13 81 1000.8
20260505094550 7 134 1.6 6.4 0.10 0.10 0.10 82 1001.4
20260505093057 7 134 1.6 6.4 0.08 0.08 0.08 78 1001.5
20260505091557 8 134 1.6 8.0 0.03 0.03 0.03 74 1001.5
20260505090042 9 134 1.6 6.4 0.00 0.00 0.00 68 1001.3
20260505084542 10 134 4.8 12.9 0.00 0.00 0.00 60 1001.2
20260505083041 10 134 3.2 8.0 0.00 0.00 0.00 59 1001.1
20260505081540 11 134 3.2 8.0 0.00 0.00 0.00 56 1001.1
20260505080044 10 134 1.6 8.0 0.00 0.00 0.00 54 1001.2
20260505074537 10 134 1.6 8.0 0.00 0.00 0.00 53 1001.1
20260505073037 9 134 1.6 6.4 0.00 0.00 0.00 58 1000.7
20260505071541 10 134 0.0 1.6 0.00 0.00 0.00 57 1000.6
20260505070033 10 134 0.0 1.6 0.00 0.00 0.00 53 1000.5
20260505064531 10 134 0.0 3.2 0.00 0.00 0.00 53 1000.5
20260505063031 10 134 0.0 8.0 0.00 0.00 0.00 52 1000.5
20260505061530 10 134 0.0 3.2 0.00 0.00 0.00 49 1000.4
20260505060042 10 134 1.6 8.0 0.00 0.00 0.00 48 1000.5
20260505054533 9 134 0.0 4.8 0.00 0.00 0.00 54 1000.5
20260505053030 10 134 0.0 3.2 0.00 0.00 0.00 57 1000.3
20260505051527 10 134 0.0 3.2 0.00 0.00 0.00 49 1000.2
20260505041522 13 134 0.0 6.4 0.00 0.00 0.00 40 1000.0
20260505040015 13 134 8.0 11.3 0.00 0.00 0.00 38 999.3
20260505034511 13 134 3.2 9.7 0.00 0.00 0.00 36 999.1
20260505033013 14 134 3.2 14.5 0.00 0.00 0.00 37 999.0
20260505031510 13 134 4.8 11.3 0.00 0.00 0.00 37 998.8
20260505030010 13 134 6.4 12.9 0.00 0.00 0.00 39 998.8
20260505024517 13 134 4.8 12.9 0.00 0.00 0.00 41 998.7
20260505023022 12 134 4.8 11.3 0.00 0.00 0.00 44 998.6
20260505021516 13 134 1.6 6.4 0.00 0.00 0.00 44 998.6
20260505020011 14 134 0.0 3.2 0.00 0.00 0.00 41 998.5
20260505014513 15 134 0.0 3.2 0.00 0.00 0.00 42 998.3
20260505013008 16 134 0.0 3.2 0.00 0.00 0.00 39 998.3
20260505011511 17 134 0.0 3.2 0.00 0.00 0.00 30 998.4
20260505010007 15 134 1.6 9.7 0.00 0.00 0.00 35 998.6
20260505004519 14 134 3.2 11.3 0.00 0.00 0.00 37 998.8
20260505003011 14 134 0.0 24.1 0.00 0.00 0.00 37 999.2
20260505001508 14 134 9.7 27.4 0.00 0.00 0.00 40 999.2
20260505000009 16 134 9.7 25.7 0.00 0.00 0.00 36 999.0
20260504234501 16 134 1.6 4.8 0.00 0.00 0.00 35 998.0
20260504233106 17 134 1.6 4.8 0.00 0.00 0.00 42 998.1
20260504231554 18 134 0.0 3.2 0.00 0.00 0.00 26 997.8
20260504224551 18 134 0.0 8.0 0.00 0.00 0.00 28 997.9
20260504223058 18 134 1.6 6.4 0.00 0.00 0.00 30 998.0
20260504221548 18 134 1.6 8.0 0.00 0.00 0.00 27 998.1
20260504220047 18 134 1.6 9.7 0.00 0.00 0.00 37 998.4
20260504214546 17 134 3.2 8.0 0.00 0.00 0.00 29 998.7
20260504213041 18 134 1.6 6.4 0.00 0.00 0.00 28 998.9
20260504211537 16 134 0.0 0.0 0.00 0.00 0.00 33 999.2
20260504210035 16 134 0.0 3.2 0.00 0.00 0.00 30 999.5
20260504204532 16 134 0.0 4.8 0.00 0.00 0.00 32 999.7
20260504203035 15 134 3.2 8.0 0.00 0.00 0.00 37 1000.0
20260504201528 15 134 0.0 4.8 0.00 0.00 0.00 42 1000.1
20260504200027 15 134 1.6 4.8 0.00 0.00 0.00 37 1000.2
20260504194528 16 134 1.6 8.0 0.00 0.00 0.00 34 1000.3
20260504193028 18 134 3.2 9.7 0.00 0.03 0.00 27 1000.4
20260504191526 17 134 1.6 4.8 0.00 0.03 0.00 30 1000.6
20260504190023 17 134 1.6 8.0 0.00 0.03 0.00 32 1000.8
20260504184528 16 134 0.0 6.4 0.00 0.03 0.00 35 1001.1